Wisconsin Dells, Wisconsin, United States (53965)
Lat: 43.63N, Lon: 89.77W
Wx Zone: WIZ057
Local Info
Past Weather Observations for Sunday, March 1, 2015

NOTE: This archive is for the closest National Weather Service station to Wisconsin Dells. Information may differ from the station used for current weather conditions.

Click here for Long-term Archive

Time Weather Temperature Dewpoint Humidity Pressure Winds Precip Visibility
23:50
Clear
16°F / -9°C 9°F / -13°C 73% 30.3 in
(1026 mb)
SSW 8.1 mph
(SSW 13 kph)
- 10SM
23:30
Clear
16°F / -9°C 9°F / -13°C 73% 30.3 in
(1026 mb)
SSW 6.9 mph
(SSW 11 kph)
- 10SM
23:10
Clear
16°F / -9°C 7°F / -14°C 67% 30.3 in
(1026 mb)
SSW 6.9 mph
(SSW 11 kph)
- 10SM
22:50
Clear
16°F / -9°C 7°F / -14°C 67% 30.3 in
(1026 mb)
SSW 4.6 mph
(SSW 7 kph)
- 10SM
22:30
Clear
16°F / -9°C 5°F / -15°C 62% 30.3 in
(1026 mb)
SSW 5.8 mph
(SSW 9 kph)
- 10SM
22:10
Clear
16°F / -9°C 5°F / -15°C 62% 30.27 in
(1025 mb)
SSW 6.9 mph
(SSW 11 kph)
- 10SM
21:50
Clear
16°F / -9°C 5°F / -15°C 62% 30.27 in
(1025 mb)
SSW 5.8 mph
(SSW 9 kph)
- 10SM
21:30
Clear
16°F / -9°C 5°F / -15°C 62% 30.27 in
(1025 mb)
SSW 4.6 mph
(SSW 7 kph)
- 10SM
21:10
Clear
18°F / -8°C 5°F / -15°C 58% 30.27 in
(1025 mb)
SSW 5.8 mph
(SSW 9 kph)
- 10SM
20:50
Clear
18°F / -8°C 5°F / -15°C 58% 30.27 in
(1025 mb)
W 6.9 mph
(W 11 kph)
- 10SM
20:30
Clear
18°F / -8°C 5°F / -15°C 58% 30.27 in
(1025 mb)
SSW 6.9 mph
(SSW 11 kph)
- 10SM
20:10
Clear
18°F / -8°C 5°F / -15°C 58% 30.27 in
(1025 mb)
SSW 6.9 mph
(SSW 11 kph)
- 10SM
19:50
Clear
19°F / -7°C 5°F / -15°C 53% 30.27 in
(1025 mb)
W 6.9 mph
(W 11 kph)
- 10SM
19:30
Clear
19°F / -7°C 5°F / -15°C 53% 30.24 in
(1024 mb)
W 9.2 mph
(W 15 kph)
- 10SM
19:10
Clear
19°F / -7°C 7°F / -14°C 58% 30.24 in
(1024 mb)
W 10.4 mph
(W 17 kph)
- 10SM
18:50
Clear
21°F / -6°C 9°F / -13°C 58% 30.24 in
(1024 mb)
W 10.4 mph
(W 17 kph)
- 10SM
18:30
Clear
21°F / -6°C 9°F / -13°C 58% 30.21 in
(1023 mb)
W 10.4 mph
(W 17 kph)
- 10SM
18:10
Clear
21°F / -6°C 10°F / -12°C 63% 30.21 in
(1023 mb)
SSW 13.8 mph
(SSW 22 kph)
- 10SM
17:50
Clear
23°F / -5°C 10°F / -12°C 58% 30.21 in
(1023 mb)
W 12.7 mph
(W 20 kph)
- 10SM
17:30
Clear
23°F / -5°C 10°F / -12°C 58% 30.21 in
(1023 mb)
SSW 10.4 mph
(SSW 17 kph)
- 10SM
17:10
Clear
25°F / -4°C 12°F / -11°C 59% 30.21 in
(1023 mb)
W 10.4 mph
(W 17 kph)
- 10SM
16:50
Clear
25°F / -4°C 14°F / -10°C 63% 30.18 in
(1022 mb)
SSW 10.4 mph
(SSW 17 kph)
- 10SM
16:30
Clear
25°F / -4°C 12°F / -11°C 59% 30.18 in
(1022 mb)
W 11.5 mph
(W 19 kph)
- 10SM
16:10
Partly Cloudy
27°F / -3°C 14°F / -10°C 59% 30.18 in
(1022 mb)
W 15 mph
(W 24 kph)
- 10SM
15:50
Mostly Cloudy
27°F / -3°C 14°F / -10°C 59% 30.18 in
(1022 mb)
W 15 mph
(W 24 kph)
- 10SM
15:30
Mostly Cloudy
27°F / -3°C 16°F / -9°C 64% 30.18 in
(1022 mb)
SSW 13.8 mph
(SSW 22 kph)
- 10SM
15:10
Mostly Cloudy
27°F / -3°C 16°F / -9°C 64% 30.18 in
(1022 mb)
W 12.7 mph
(W 20 kph)
- 10SM
14:50
Mostly Cloudy
27°F / -3°C 16°F / -9°C 64% 30.18 in
(1022 mb)
SSW 8.1 mph
(SSW 13 kph)
- 10SM
14:30
Overcast
27°F / -3°C 16°F / -9°C 64% 30.21 in
(1023 mb)
SSW 13.8 mph
(SSW 22 kph)
- 10SM
14:10
Overcast
27°F / -3°C 16°F / -9°C 64% 30.21 in
(1023 mb)
SSW 11.5 mph
(SSW 19 kph)
- 10SM
13:50
Partly Cloudy
27°F / -3°C 16°F / -9°C 64% 30.21 in
(1023 mb)
SSW 17.3 mph
(SSW 28 kph)
- 10SM
13:30
Clear
27°F / -3°C 16°F / -9°C 64% 30.21 in
(1023 mb)
SSW 12.7 mph
(SSW 20 kph)
- 10SM
13:10
Partly Cloudy
25°F / -4°C 16°F / -9°C 69% 30.21 in
(1023 mb)
SSW 11.5 mph
(SSW 19 kph)
- 10SM
12:50
Partly Cloudy
23°F / -5°C 14°F / -10°C 68% 30.21 in
(1023 mb)
SW 12.7 mph
(SW 20 kph)
- 10SM
12:30
Partly Cloudy
23°F / -5°C 14°F / -10°C 68% 30.24 in
(1024 mb)
SSW 12.7 mph
(SSW 20 kph)
- 10SM
12:10
Partly Cloudy
23°F / -5°C 14°F / -10°C 68% 30.24 in
(1024 mb)
SW 11.5 mph
(SW 19 kph)
- 10SM
11:50
Partly Cloudy
23°F / -5°C 14°F / -10°C 68% 30.27 in
(1025 mb)
SSW 11.5 mph
(SSW 19 kph)
- 10SM
11:30
Clear
21°F / -6°C 14°F / -10°C 74% 30.27 in
(1025 mb)
SW 11.5 mph
(SW 19 kph)
- 10SM
11:10
Clear
21°F / -6°C 14°F / -10°C 74% 30.27 in
(1025 mb)
SW 10.4 mph
(SW 17 kph)
- 10SM
10:50
Clear
21°F / -6°C 14°F / -10°C 74% 30.27 in
(1025 mb)
SSW 9.2 mph
(SSW 15 kph)
- 10SM
10:30
Clear
21°F / -6°C 12°F / -11°C 68% 30.27 in
(1025 mb)
SSW 9.2 mph
(SSW 15 kph)
- 10SM
10:10
Clear
19°F / -7°C 12°F / -11°C 73% 30.27 in
(1025 mb)
SSW 11.5 mph
(SSW 19 kph)
- 10SM
09:50
Clear
19°F / -7°C 12°F / -11°C 73% 30.3 in
(1026 mb)
SSW 5.8 mph
(SSW 9 kph)
- 10SM
09:30
Clear
18°F / -8°C 12°F / -11°C 79% 30.3 in
(1026 mb)
SW 6.9 mph
(SW 11 kph)
- 10SM
09:10
Clear
18°F / -8°C 12°F / -11°C 79% 30.3 in
(1026 mb)
SW 6.9 mph
(SW 11 kph)
- 10SM
08:50
Clear
16°F / -9°C 10°F / -12°C 79% 30.3 in
(1026 mb)
SSW 3.5 mph
(SSW 6 kph)
- 10SM
08:30
Clear
14°F / -10°C 10°F / -12°C 85% 30.3 in
(1026 mb)
SW 5.8 mph
(SW 9 kph)
- 10SM
08:10
Clear
12°F / -11°C 10°F / -12°C 92% 30.3 in
(1026 mb)
SW 3.5 mph
(SW 6 kph)
- 10SM
07:50
Clear
12°F / -11°C 9°F / -13°C 85% 30.3 in
(1026 mb)
SW 4.6 mph
(SW 7 kph)
- 10SM
07:30
Clear
10°F / -12°C 9°F / -13°C 92% 30.3 in
(1026 mb)
SW 5.8 mph
(SW 9 kph)
- 10SM
07:10
Clear
10°F / -12°C 9°F / -13°C 92% 30.3 in
(1026 mb)
SW 6.9 mph
(SW 11 kph)
- 10SM
06:50
Partly Cloudy
Light Snow
10°F / -12°C 7°F / -14°C 85% 30.3 in
(1026 mb)
SSW 3.5 mph
(SSW 6 kph)
- 4SM
06:30
Clear
9°F / -13°C 7°F / -14°C 92% 30.3 in
(1026 mb)
SW 3.5 mph
(SW 6 kph)
- 7SM
06:10
Mostly Cloudy
10°F / -12°C 7°F / -14°C 85% 30.3 in
(1026 mb)
SSW 3.5 mph
(SSW 6 kph)
- 10SM
05:50
Mostly Cloudy
10°F / -12°C 7°F / -14°C 85% 30.3 in
(1026 mb)
Calm - 7SM
05:30
Partly Cloudy
10°F / -12°C 7°F / -14°C 85% 30.33 in
(1027 mb)
Calm - 10SM
05:10
Clear
10°F / -12°C 7°F / -14°C 85% 30.33 in
(1027 mb)
SW 4.6 mph
(SW 7 kph)
- 10SM
04:50
Clear
Light Snow
10°F / -12°C 7°F / -14°C 85% 30.33 in
(1027 mb)
SW 5.8 mph
(SW 9 kph)
- 7SM
04:30
Clear
Light Snow
10°F / -12°C 7°F / -14°C 85% 30.33 in
(1027 mb)
SW 4.6 mph
(SW 7 kph)
- 7SM
04:10
Partly Cloudy
Light Snow
10°F / -12°C 7°F / -14°C 85% 30.33 in
(1027 mb)
SW 5.8 mph
(SW 9 kph)
- 5SM
03:50
Overcast
Light Snow
10°F / -12°C 9°F / -13°C 92% 30.36 in
(1028 mb)
SW 5.8 mph
(SW 9 kph)
- 3SM
03:30
Overcast
Light Snow
10°F / -12°C 7°F / -14°C 85% 30.36 in
(1028 mb)
SW 3.5 mph
(SW 6 kph)
- 1 1/2SM
03:10
Overcast
Light Snow
10°F / -12°C 7°F / -14°C 85% 30.36 in
(1028 mb)
SSW 3.5 mph
(SSW 6 kph)
- 2SM
02:50
Overcast
Light Snow
10°F / -12°C 7°F / -14°C 85% 30.36 in
(1028 mb)
SW 3.5 mph
(SW 6 kph)
- 1 1/4SM
02:30
Overcast
Light Snow
10°F / -12°C 7°F / -14°C 85% 30.36 in
(1028 mb)
SSW 3.5 mph
(SSW 6 kph)
- 4SM
02:10
Partly Cloudy
Light Snow
9°F / -13°C 5°F / -15°C 85% 30.36 in
(1028 mb)
SW 4.6 mph
(SW 7 kph)
- 10SM
01:50
Clear
Light Snow
9°F / -13°C 5°F / -15°C 85% 30.36 in
(1028 mb)
SSW 3.5 mph
(SSW 6 kph)
- 4SM
01:30
Mostly Cloudy
Light Snow
10°F / -12°C 5°F / -15°C 79% 30.39 in
(1029 mb)
SW 3.5 mph
(SW 6 kph)
- 2SM
01:10
Overcast
Light Snow
10°F / -12°C 7°F / -14°C 85% 30.39 in
(1029 mb)
SSW 3.5 mph
(SSW 6 kph)
- 2 1/2SM
00:50
Mostly Cloudy
Light Snow
10°F / -12°C 5°F / -15°C 79% 30.39 in
(1029 mb)
SW 4.6 mph
(SW 7 kph)
- 2SM
00:30
Partly Cloudy
Light Snow
10°F / -12°C 5°F / -15°C 79% 30.39 in
(1029 mb)
SW 3.5 mph
(SW 6 kph)
- 2SM
00:10
Mostly Cloudy
10°F / -12°C 5°F / -15°C 79% 30.39 in
(1029 mb)
SW 3.5 mph
(SW 6 kph)
- 10SM
Time Weather Temperature Dewpoint Humidity Pressure Winds Precip Visibility


Weather for websites

WeatherForYou.com, LLC is not responsible for any damages or problems caused by this service. Current weather conditions are obtained from the closest station including government and personal stations which may have varying degrees of accuracy. Weather forecasts are derived from the NOAA NDFD. Like all things, this site belongs to Jesus Christ... He just trusts me to maintain it. If you have any questions or comments email webmaster@weatherforyou.com

Copyright © 2015, WeatherForYou.com LLC. All rights reserved.